Location: ????????
(55.0559°N, 39.1270°E)
Time: 00:46:15
(UTC+00:00)

Cosmos 1484 Rocket - Pass Details

Date: 15 November 2025
Orbit: 442 x 473 km, 97.6° (Epoch: 12 December)

Event Time Altitude Azimuth Distance (km) Brightness Sun altitude
Rises 02:43:37 0° 20° (NNE) 2,551 6.4 -18.6°
Reaches altitude 10° 02:45:50 10° 30° (NNE) 1,664 5.6 -18.2°
Maximum altitude 02:49:08 34° 97° (E) 802 4.3 -17.8°
Drops below altitude 10° 02:52:23 10° 165° (SSE) 1,640 5.5 -17.3°
Sets 02:54:33 0° 174° (S) 2,507 6.4 -17.0°
